Regional Weather Roundup
Issued by NWS State College, PA

Home | Current Version | Previous Version | Graphics & Text | Print | Product List | Glossary On
Versions: 1 2 3 4 5 6 7 8 9 10 11 12 13 14 15 16 17 18 19 20 21 22 23 24 25 26 27 28 29 30 31 32 33 34 35 36 37 38 39 40 41 42 43 44 45 46 47 48 49 50
000
ASUS41 KCTP 180110
RWRCTP

REGIONAL WEATHER ROUNDUP
NATIONAL WEATHER SERVICE STATE COLLEGE PA
900 PM EDT THU AUG 17 2017

Note: "fair" indicates few or no clouds below 12,000 feet with no
significant weather and/or obstructions to visibility.

* = STATION THAT DOES NOT REPORT PRECIPITATION /E.G. RAIN...SNOW...ETC/
    THUNDER OR FOG.

PAZ002>004-007>009-013>016-020>023-029>032-180200-
WESTERN PENNSYLVANIA

CITY           SKY/WX    TMP DP  RH WIND       PRES   REMARKS
ERIE           CLOUDY    74  72  93 S8        29.80R
MEADVILLE      CLOUDY    71  71 100 VRB5      29.86F
FRANKLIN*      CLOUDY    73  70  88 S9        29.86S
NEW CASTLE     CLOUDY    78  73  84 VRB7      29.86R
BEAVER COUNTY  RAIN      75  70  83 S9        29.88R
BUTLER*        CLOUDY    75  70  83 S7        29.89R
PITTSBURGH INT TSTM      75  73  93 S3        29.88R
PITTSBURGH     CLOUDY    75  71  87 S7        29.88R
INDIANA*       CLEAR     77  72  83 SW6       29.93R
LATROBE        MOCLDY    81  70  69 S6        29.90R
WASHINGTON CO* CLOUDY    75  70  83 SW13G28   29.90R
$$

PAZ004>006-010>012-017>019-024>028-033>037-041-042-045-046-049>053-180200-
CENTRAL PENNSYLVANIA

CITY           SKY/WX    TMP DP  RH WIND       PRES   REMARKS
BRADFORD       CLOUDY    75  70  84 SE7       29.91F
DUBOIS         CLOUDY    76  67  73 S5        29.91S
CLEARFIELD     CLOUDY    78  70  76 CALM      29.92S
JOHNSTOWN      MOCLDY    76  69  79 S10       29.97R
ALTOONA        CLOUDY    75  73  93 S9        29.95R
STATE COLLEGE  PTCLDY    79  70  73 CALM      29.92F
WILLIAMSPORT   MOCLDY    82  71  69 SE8       29.88F
SELINSGROVE    MOCLDY    79  72  79 SE6       29.91F
FT INDIANTOWN  CLOUDY    79  74  86 CALM      29.93S
CAPITAL CITY   PTCLDY    82  71  69 SE9       29.92R
HARRISBURG     MOCLDY    80  74  81 S9        29.91S
YORK           PTCLDY    79  73  82 VRB3      29.93R
$$

PAZ038>040-043-044-047-048-054-055-060>062-067>071-180200-
EASTERN PENNSYLVANIA

CITY           SKY/WX    TMP DP  RH WIND       PRES   REMARKS
SCRANTON       CLOUDY    79  65  62 S8        29.95R
MOUNT POCONO   CLOUDY    70  66  87 SE8       30.02S
ALLENTOWN      CLOUDY    81  68  64 SE7       29.95S
QUAKERTOWN*    MOCLDY    77  70  78 S5        29.97S
READING        PTCLDY    79  72  79 S6        29.94S
LANCASTER      PTCLDY    78  74  87 SE5       29.94S
COATESVILLE    CLEAR     75  72  88 SE6       29.98S
POTTSTOWN      MOCLDY    78  70  76 S5        29.97S
BLUE BELL      CLOUDY    77  68  73 CALM      29.97S
DOYLESTOWN     MOCLDY    76  69  79 S3        29.96S
WILLOW GROVE   NOT AVBL
NORTH PHILA    PTCLDY    82  65  56 S5        29.97S
PHILADELPHIA   MOCLDY    79  70  74 S7        29.95F
$$




USA.gov is the U.S. government's official web portal to all federal, state and local government web resources and services.